[[{"header":{"parameterUnit":"m.s-1","parameterCategory":1,"la1":30.2992,"la2":30.254,"lo1":-89.0895,"lo2":-89.0443,"dy":0.0025,"dx":0.0025,"nx":19,"ny":19,"refTime":"2026-05-10T09:00:00:Z","depth":0,"parameterNumber":2,"parameterNumberName":"U-component_of_WINDS"},"data":[0,0,0,-1.5492,-1.5491,-1.5419,-1.5418,-1.5358,-1.5358,0,0,0,0,0,0,0,0,0,0,0,-1.5531,-1.5531,-1.5492,-1.5491,-1.5419,-1.5418,-1.5358,-1.5358,0,0,0,0,0,0,0,0,0,0,0,-1.5531,-1.5531,-1.5531,-1.5491,-1.5419,-1.5418,-1.5358,-1.5402,0,0,0,0,0,0,0,0,0,0,-1.5467,-1.5519,-1.5531,-1.5531,-1.5491,-1.5419,-1.5418,-1.5403,-1.5399,-1.5404,0,-1.5412,0,-1.5384,-1.5356,-1.5356,0,0,0,-1.5478,-1.5523,-1.5487,-1.5531,-1.549,-1.5419,-1.5448,-1.5401,-1.5396,-1.5399,-1.541,-1.5407,-1.5383,-1.5356,-1.5355,-1.5426,-1.5427,0,0,-1.5482,-1.5528,-1.5491,-1.5485,-1.5496,-1.545,-1.5446,-1.5397,-1.5414,-1.541,-1.5405,-1.5382,-1.5355,-1.5355,-1.5425,-1.5426,0,0,0,-1.5502,-1.5531,-1.5496,-1.5488,-1.5473,-1.5448,-1.5443,-1.5416,-1.54,-1.5405,-1.5381,-1.5355,-1.5355,-1.5424,-1.5426,-1.5517,0,0,0,-1.5504,-1.5543,-1.5499,-1.5526,-1.5474,-1.5443,-1.5463,-1.5404,-1.5397,-1.5382,-1.5355,-1.5354,-1.5423,-1.5425,-1.5512,-1.5552,0,0,0,-1.553,-1.5545,-1.5541,-1.5528,-1.5499,-1.5442,-1.5424,-1.5401,-1.5384,-1.5356,-1.5354,-1.5422,-1.5424,-1.5507,-1.5545,-1.5586,0,0,0,-1.5571,-1.5621,-1.5543,-1.5591,-1.55,-1.5499,-1.5424,-1.5421,-1.5408,-1.5355,-1.5423,-1.5425,-1.5506,-1.554,-1.5582,-1.563,-1.5653,0,0,-1.566,-1.5633,-1.5658,-1.5586,-1.5611,-1.5506,-1.5545,-1.549,-1.5446,-1.5436,-1.5437,-1.5513,-1.5544,-1.5585,-1.5769,-1.5788,0,0,0,-1.5702,-1.5721,-1.5717,-1.5707,-1.5667,-1.5637,-1.5571,-1.5551,-1.5541,-1.5449,-1.5537,-1.5554,-1.5576,-1.5597,-1.5614,-1.5631,-1.5437,-1.5436,-1.5436,-1.5893,-1.5835,-1.5873,-1.5808,-1.58,-1.5733,-1.5722,-1.5684,-1.5626,-1.5649,-1.5646,-1.5764,-1.579,-1.5802,-1.5821,-1.5665,-1.5666,-1.5666,-1.5666,-1.602,-1.6038,-1.5964,-1.5974,-1.5914,-1.5922,-1.5862,-1.5822,-1.5824,-1.5761,-1.5777,-1.5715,-1.5825,-1.5839,-1.5672,-1.5671,-1.5671,-1.567,-1.5669,-1.614,-1.6138,-1.6114,-1.6096,-1.609,-1.6022,-1.6028,-1.5972,-1.5919,-1.5936,-1.5929,-1.5927,-1.592,-1.5936,-1.5937,-1.5937,-1.5937,-1.5938,-1.5938,-1.6274,-1.6243,-1.6254,-1.6219,-1.6207,-1.6185,-1.6122,-1.6109,-1.6082,-1.6041,-1.6041,-1.5984,-1.5846,-1.5814,-1.5944,-1.5943,-1.5942,-1.5942,-1.5941,-1.6426,-1.6383,-1.64,-1.6389,-1.6345,-1.6345,-1.6274,-1.6255,-1.6236,-1.6242,-1.6182,-1.6089,-1.6058,-1.6044,-1.6017,-1.6193,-1.6193,-1.6193,-1.6193,-1.6528,-1.6507,-1.6514,-1.6501,-1.6481,-1.642,-1.6445,-1.6399,-1.6344,-1.633,-1.6297,-1.6256,-1.6245,-1.6221,-1.6203,-1.6177,-1.6389,-1.639,-1.639,-1.662,-1.6595,-1.6626,-1.6571,-1.6534,-1.6504,-1.6527,-1.6517,-1.6446,-1.6397,-1.6319,-1.6311,-1.6244,-1.6225,-1.6174,-1.6148,-1.6099,0,0]},{"header":{"parameterUnit":"m.s-1","parameterCategory":1,"la1":30.2992,"la2":30.254,"lo1":-89.0895,"lo2":-89.0443,"dy":0.0025,"dx":0.0025,"nx":19,"ny":19,"refTime":"2026-05-10T09:00:00:Z","depth":0,"parameterNumber":3,"parameterNumberName":"V-component_of_WINDS"},"data":[0,0,0,2.5201,2.52,2.5203,2.5203,2.519,2.519,0,0,0,0,0,0,0,0,0,0,0,2.5192,2.5191,2.5201,2.52,2.5203,2.5203,2.519,2.519,0,0,0,0,0,0,0,0,0,0,0,2.5192,2.5191,2.5191,2.52,2.5203,2.5203,2.519,2.5194,0,0,0,0,0,0,0,0,0,0,2.5194,2.5178,2.5192,2.5191,2.52,2.5203,2.5203,2.5194,2.5193,2.5183,0,2.5172,0,2.5181,2.5188,2.5188,0,0,0,2.5206,2.5179,2.5187,2.5191,2.52,2.5202,2.5203,2.5194,2.5193,2.5182,2.5172,2.5172,2.518,2.5188,2.5188,2.5109,2.5108,0,0,2.5206,2.5187,2.5187,2.5186,2.5186,2.5203,2.5203,2.5194,2.5181,2.5172,2.5172,2.518,2.5187,2.5187,2.5109,2.5109,0,0,0,2.5202,2.5187,2.5196,2.5186,2.5188,2.5203,2.5203,2.5182,2.5186,2.5172,2.518,2.5187,2.5187,2.511,2.5109,2.5058,0,0,0,2.5202,2.5185,2.5195,2.5184,2.5188,2.5185,2.5191,2.5187,2.5186,2.518,2.5187,2.5187,2.5111,2.511,2.5061,2.5036,0,0,0,2.5194,2.5184,2.5181,2.5183,2.5183,2.5186,2.519,2.5187,2.5191,2.5188,2.5187,2.5111,2.511,2.5064,2.5041,2.5008,0,0,0,2.518,2.5136,2.518,2.5135,2.5183,2.5155,2.519,2.517,2.5161,2.5187,2.5111,2.5109,2.5065,2.5043,2.5011,2.4976,2.496,0,0,2.5114,2.5128,2.5102,2.5142,2.5101,2.5156,2.5108,2.5117,2.5134,2.5116,2.5114,2.506,2.5041,2.5009,2.4884,2.4872,0,0,0,2.5075,2.5056,2.5049,2.5041,2.5048,2.5051,2.507,2.5074,2.506,2.5121,2.5042,2.5031,2.5013,2.4997,2.4986,2.4971,2.5102,2.5102,2.5102,2.4952,2.4977,2.4936,2.496,2.4952,2.4972,2.4967,2.4975,2.5002,2.4983,2.4976,2.4898,2.4878,2.4871,2.4854,2.4962,2.4962,2.4962,2.4962,2.4855,2.4831,2.487,2.4843,2.4869,2.4847,2.4865,2.4885,2.4867,2.4905,2.489,2.4927,2.4856,2.4843,2.4958,2.4959,2.4959,2.496,2.496,2.4775,2.4767,2.4774,2.4764,2.4753,2.478,2.4761,2.4786,2.4809,2.4795,2.479,2.479,2.4792,2.4791,2.4791,2.4791,2.4791,2.479,2.479,2.4688,2.4697,2.4678,2.4682,2.468,2.468,2.4701,2.4699,2.4702,2.4722,2.4722,2.4749,2.4846,2.4868,2.4786,2.4787,2.4787,2.4788,2.4788,2.4575,2.4605,2.4575,2.4573,2.458,2.4566,2.46,2.4593,2.4595,2.4584,2.4616,2.4685,2.47,2.4708,2.4726,2.4613,2.4613,2.4613,2.4613,2.4505,2.4516,2.4491,2.4485,2.4483,2.451,2.4475,2.4491,2.4512,2.4514,2.4535,2.4562,2.457,2.458,2.4592,2.4609,2.4468,2.4468,2.4468,2.4435,2.4448,2.4412,2.4435,2.4442,2.4448,2.4414,2.4405,2.4435,2.4462,2.4516,2.4522,2.4567,2.458,2.4605,2.4622,2.4654,0,0]}]]